Regional Weather Roundup
Issued by NWS

Home | Current Version | Previous Version | Graphics & Text | Print | Product List | Glossary On
Versions: 1 2 3 4 5 6 7 8 9 10 11 12 13 14 15 16 17 18 19 20 21 22 23 24 25 26 27 28 29 30 31 32 33 34 35 36 37 38 39 40 41 42 43 44 45 46 47 48 49 50
000
ASUS43 KTOP 010459
RWRKS

WEATHER ROUNDUP FOR KANSAS
NATIONAL WEATHER SERVICE GOODLAND KS
1200 AM CDT SAT AUG 01 2015

NOTE:  "FAIR" INDICATES FEW OR NO CLOUDS BELOW 12,000 FEET WITH NO
SIGNIFICANT WEATHER AND/OR OBSTRUCTIONS TO VISIBILITY.

KSZ001>006-013>018-027>032-041>047-010600-
NORTHWEST KANSAS

CITY           SKY/WX    TMP DP  RH WIND       PRES   REMARKS
GOODLAND       CLEAR     71  58  63 S13       30.19S
HAYS           CLEAR     73  61  64 SE6       30.12S
HILL CITY      CLEAR     75  63  66 S7        30.12S
RUSSELL        CLEAR     74  68  81 S9        30.10F
$$

KSZ061>065-074>080-084>089-010600-
SOUTHWEST KANSAS

CITY           SKY/WX    TMP DP  RH WIND       PRES   REMARKS
DODGE CITY     CLEAR     71  67  87 S7        30.16S
ELKHART          N/A     67  62  84 SE8         N/A
GARDEN CITY    CLEAR     71  67  87 S7        30.16F
GREAT BEND     CLEAR     73  66  78 S6        30.12S
LIBERAL        MOCLDY    72  64  78 S6        30.18R
PRATT          CLEAR     72  70  94 SW3       30.15R
$$

KSZ066>073-081>083-090>101-010600-
SOUTHEAST KANSAS

CITY           SKY/WX    TMP DP  RH WIND       PRES   REMARKS
CHANUTE        PTCLDY    74  70  87 S5        30.09F
COFFEYVILLE    CLEAR     72  69  90 CALM      30.08F
HUTCHINSON     CLEAR     72  68  87 CALM      30.11S
MEDICINE LODGE   N/A     77  72  84 CALM      30.10S
NEWTON         CLEAR     75  68  78 S6        30.13S
PARSONS        PTCLDY    72  71  97 CALM      30.10S
WICHITA INTL   PTCLDY    77  72  84 S7        30.09F
WICHITA JABRA  PTCLDY    78  72  81 S9        30.10F
WINFIELD       PTCLDY    77  74  90 SE3       30.11S
$$

KSZ007>012-019>026-033>040-048>060-102>105-010600-
NORTHEAST KANSAS

CITY           SKY/WX    TMP DP  RH WIND       PRES   REMARKS
CONCORDIA      PTCLDY    72  64  76 NE3       30.08F
EMPORIA        CLEAR     73  68  84 S9        30.08F
LAWRENCE       PTCLDY    70  67  90 CALM      30.07F
MANHATTAN      MOCLDY    75  71  87 CALM      30.07S
OLATHE IND     PTCLDY    76  66  71 SW6       30.08F
OLATHE EXE     CLEAR     76  66  71 CALM      30.08R
SALINA         CLEAR     77  68  73 S3        30.08F
TOPEKA BILLARD MOCLDY    76  73  91 CALM      30.07S
TOPEKA FORBES  PTCLDY    76  69  79 CALM      30.08S
$$


USA.gov is the U.S. government's official web portal to all federal, state and local government web resources and services.